Temperature
2 2 2 2 2 2 2 2 1 1 2 3 3 3 3 3 3 3 3 3 3 3 3 3 3 3 4 4 4 4 4 4 4 4 4 4 4 4
1 1 1 1 1 1 1 1 1 1 1 2 2 2 2 2 2 2 2 2 2 2 2 2 3 3 3 3 3 3 3 4 4 3 4 4 4 4
1 1 1 1 1 1 1 0 0 0 0 1 1 1 1 1 1 1 1 1 2 2 2 2 2 2 2 2 3 3 3 3 3 3 3 3 3 3
0 -0 0 -0 -0 -0 -0 -0 -0 -0 -0 -0 0 1 1 1 1 1 1 1 1 1 1 1 1 1 1 2 2 2 2 2 2 2 2 2 2 2
-1 -1 -1 -1 -1 -1 -1 -1 -1 -1 -1 -1 -1 -0 -0 -0 -0 0 0 0 0 0 0 1 1 1 1 1 1 1 2 2 2 2 2 2 2 1
-1 -1 -1 -2 -2 -1 -1 -1 -2 -2 -2 -2 -1 -1 -1 -1 -1 -1 -0 -0 -0 -0 -0 -0 -0 -0 0 0 0 1 1 1 1 1 1 1 1 1
-2 -2 -2 -2 -2 -2 -2 -2 -2 -2 -2 -2 -2 -2 -2 -2 -2 -2 -2 -1 -1 -1 -1 -1 -1 -0 -0 -0 -0 0 0 0 0 0 0 0 0 0
-3 -3 -3 -3 -3 -3 -3 -3 -3 -3 -3 -3 -3 -3 -2 -2 -3 -3 -3 -3 -2 -2 -2 -1 -1 -1 -1 -1 -1 -1 -0 -0 -1 -1 -1 -1 -1 -1
-4 -3 -4 -4 -4 -4 -4 -4 -4 -4 -4 -4 -4 -3 -3 -3 -3 -3 -3 -4 -3 -3 -3 -2 -2 -2 -2 -2 -1 -1 -1 -1 -1 -1 -1 -1 -1 -1
-4 -4 -5 -5 -5 -5 -5 -5 -4 -4 -4 -4 -4 -4 -4 -4 -4 -4 -4 -4 -4 -4 -4 -4 -3 -3 -2 -2 -2 -2 -2 -2 -2 -2 -2 -2 -2 -2
-5 -5 -5 -5 -6 -6 -6 -6 -5 -5 -5 -5 -5 -5 -5 -5 -5 -5 -5 -5 -5 -5 -4 -5 -4 -4 -3 -3 -3 -3 -3 -3 -3 -3 -3 -3 -3 -3
-6 -6 -6 -6 -6 -6 -6 -6 -6 -6 -5 -5 -5 -5 -5 -5 -5 -5 -5 -6 -6 -6 -5 -5 -5 -5 -5 -4 -4 -4 -4 -3 -3 -3 -3 -3 -3 -3
-7 -7 -7 -7 -7 -7 -7 -7 -7 -7 -6 -6 -6 -6 -6 -6 -6 -6 -6 -6 -6 -6 -6 -6 -6 -6 -6 -6 -5 -4 -4 -4 -4 -4 -4 -4 -4 -4
-8 -8 -8 -8 -8 -8 -8 -8 -7 -7 -7 -7 -7 -7 -7 -6 -6 -6 -6 -6 -6 -6 -6 -7 -7 -7 -7 -7 -6 -5 -5 -5 -5 -5 -5 -4 -4 -4
-8 -8 -8 -8 -8 -8 -8 -8 -8 -8 -8 -8 -8 -7 -7 -7 -7 -7 -7 -7 -7 -7 -7 -7 -7 -7 -7 -7 -7 -6 -6 -6 -6 -5 -5 -5 -5 -5
-9 -9 -9 -9 -9 -9 -9 -9 -9 -9 -8 -8 -8 -8 -8 -8 -8 -8 -8 -8 -7 -7 -7 -7 -7 -8 -8 -8 -7 -7 -7 -7 -6 -6 -6 -6 -6 -6
-10 -10 -10 -10 -9 -9 -9 -9 -9 -9 -9 -9 -9 -9 -9 -9 -8 -8 -8 -8 -8 -8 -8 -7 -8 -8 -8 -8 -8 -8 -7 -7 -7 -7 -7 -7 -6 -6
-10 -10 -10 -10 -10 -10 -10 -10 -10 -10 -10 -10 -9 -9 -9 -9 -9 -9 -9 -9 -9 -9 -9 -8 -8 -8 -8 -8 -8 -8 -8 -8 -8 -8 -7 -7 -7 -7
-11 -11 -11 -11 -11 -11 -10 -10 -10 -10 -10 -10 -10 -10 -10 -10 -10 -9 -9 -9 -9 -9 -9 -9 -9 -9 -10 -10 -9 -9 -9 -9 -9 -8 -8 -8 -8 -8
-11 -11 -11 -11 -11 -11 -11 -11 -11 -11 -11 -11 -11 -10 -10 -10 -10 -10 -10 -10 -10 -10 -10 -10 -10 -10 -10 -10 -10 -9 -9 -9 -9 -9 -9 -9 -9 -8
-12 -12 -12 -12 -12 -12 -12 -11 -11 -11 -11 -11 -11 -11 -11 -11 -11 -11 -11 -11 -11 -11 -10 -10 -10 -10 -10 -10 -10 -10 -9 -10 -10 -10 -10 -9 -9 -9
-12 -12 -12 -12 -12 -12 -12 -12 -12 -12 -12 -12 -12 -11 -11 -11 -11 -11 -11 -11 -11 -11 -11 -11 -11 -11 -11 -11 -11 -11 -10 -10 -10 -10 -10 -10 -10 -10
-13 -12 -12 -12 -12 -12 -12 -12 -12 -12 -12 -12 -12 -12 -12 -12 -12 -12 -12 -12 -12 -11 -11 -11 -11 -11 -11 -11 -11 -11 -11 -10 -10 -10 -10 -10 -10 -10
Wind_Speed
4 5 4 4 3 3 3 3 3 3 4 3 2 2 3 4 6 6 7 9 10 10 11 12 11 11 12 12 11 11 11 10 11 12 12 12 13 13
3 4 5 4 3 4 4 4 4 5 5 3 4 3 4 6 7 7 8 10 10 11 11 12 12 11 12 12 11 10 11 11 11 12 12 12 13 14
4 5 5 4 4 4 4 4 5 5 7 5 3 3 4 4 6 7 8 9 9 11 12 12 12 12 12 13 12 12 12 11 12 12 13 13 13 14
6 6 6 5 5 4 4 5 5 5 6 7 4 3 4 5 5 5 7 8 8 10 11 12 12 12 13 13 13 13 13 12 12 12 13 13 13 14
6 6 6 6 6 5 5 5 5 5 5 6 6 4 4 4 4 5 6 6 8 9 11 11 12 12 13 13 13 14 13 13 13 13 13 13 14 15
6 6 6 7 7 7 6 6 5 5 5 6 6 5 4 3 3 4 5 4 5 7 9 10 11 12 13 14 14 14 14 14 14 14 14 14 14 15
5 6 6 7 9 7 6 6 6 6 5 6 6 5 4 3 4 4 5 5 6 5 4 6 7 8 10 12 13 13 14 14 14 15 15 15 15 15
5 5 6 7 8 9 10 10 8 8 7 7 7 7 7 6 5 5 5 5 5 3 3 6 6 7 8 9 13 14 14 14 14 14 15 15 15 15
5 5 5 6 7 5 8 9 9 11 11 8 8 9 7 5 5 6 6 6 7 5 4 7 5 7 8 11 14 14 14 14 14 14 14 14 14 15
6 6 6 6 6 6 6 6 6 7 8 7 8 8 7 6 6 7 7 7 7 5 4 6 6 7 8 10 13 14 14 13 13 13 14 14 15 15
5 5 6 6 9 9 6 6 6 6 9 10 11 10 10 10 8 4 5 5 7 5 3 4 5 6 6 6 9 11 12 12 13 13 14 14 14 14
3 4 7 7 9 9 6 5 7 6 5 5 6 7 8 8 10 7 6 6 5 5 3 3 4 3 4 4 4 6 9 12 13 13 13 13 13 10
3 3 4 8 9 9 8 6 8 6 4 4 5 4 4 4 5 6 6 6 6 6 4 3 4 4 5 5 5 5 6 6 8 10 11 12 13 11
3 3 4 7 8 8 7 7 9 7 4 4 4 5 5 4 4 5 7 7 8 8 8 6 5 5 6 7 7 4 5 6 7 7 7 10 12 13
3 5 6 7 6 5 7 8 7 4 4 4 5 5 5 5 4 4 5 6 7 8 9 9 7 6 6 7 7 6 6 6 6 5 5 6 7 7
3 4 6 6 5 5 5 5 4 4 4 4 4 4 4 4 4 4 4 4 4 5 6 8 8 7 7 7 7 7 6 5 5 6 6 7 7 8
2 1 2 2 2 2 3 3 2 3 4 4 4 4 4 5 5 4 4 4 4 5 5 4 5 6 7 7 7 7 7 7 6 6 6 6 6 7
2 1 2 2 2 3 3 3 3 3 4 4 4 4 5 5 5 4 4 4 5 5 5 4 3 4 4 5 7 8 6 6 6 6 6 6 7 6
1 1 2 3 3 3 3 3 3 3 3 4 4 4 5 5 5 5 5 4 5 5 5 4 4 4 5 7 5 6 5 5 5 5 5 5 7 7
1 2 3 3 3 3 4 4 4 3 3 4 4 4 4 5 5 5 5 5 5 5 5 4 4 5 6 7 6 5 6 6 5 6 6 6 6 9
2 2 3 3 3 4 4 4 4 4 4 4 4 5 5 5 5 5 5 7 6 5 6 6 6 7 5 3 4 5 4 6 7 6 6 6 7 6
3 3 3 3 3 4 4 4 4 4 4 4 4 4 4 5 5 6 5 5 5 5 6 5 4 4 3 4 6 6 7 6 8 9 9 9 6 5
3 3 3 4 4 4 4 4 5 4 4 4 4 4 4 5 5 5 5 5 5 5 5 5 4 3 4 4 5 6 7 7 6 6 6 8 10 12
Wind_Direction
223 219 222 227 222 224 215 208 213 250 254 240 238 240 257 278 285 285 285 283 281 281 283 286 287 291 292 293 289 276 274 276 278 279 277 273 273 277
228 219 226 229 223 223 221 220 220 227 254 248 240 260 276 278 277 279 279 282 279 278 279 281 281 284 286 289 287 281 274 274 274 274 276 279 280 279
226 222 229 225 223 223 223 225 226 224 249 269 260 260 251 262 286 283 278 275 273 274 275 277 278 278 281 280 285 281 275 273 273 273 274 277 279 281
225 223 230 227 228 229 225 230 234 229 237 262 269 259 256 258 268 275 283 276 273 275 275 278 278 277 279 279 281 281 277 272 272 273 273 275 278 279
226 226 229 224 232 232 231 233 239 242 236 249 266 259 254 261 271 278 278 276 279 277 278 278 277 278 281 280 279 281 277 271 270 271 272 272 274 276
234 232 232 227 231 230 233 234 236 241 240 247 262 265 253 251 246 264 279 270 278 286 281 277 278 279 279 280 278 277 274 269 267 269 270 271 271 272
238 238 238 237 238 237 238 233 232 238 243 247 256 265 254 250 247 253 268 281 277 268 275 276 279 276 273 276 274 273 271 267 267 268 269 269 270 270
238 243 244 244 246 250 252 249 241 239 238 243 251 257 255 250 254 259 263 278 280 253 263 277 273 269 271 268 271 270 270 269 269 270 270 270 271 271
234 241 249 248 252 246 253 256 254 253 247 242 249 256 260 251 247 255 254 261 267 269 280 277 267 268 273 269 272 271 269 269 270 273 272 270 272 273
234 235 239 246 244 244 244 251 254 258 257 251 246 253 256 248 237 246 255 266 275 270 251 265 272 274 283 275 269 269 271 273 269 268 271 274 275 275
242 238 236 239 247 250 246 251 262 266 267 266 269 267 267 266 261 249 250 259 273 272 239 249 273 288 285 273 264 266 269 276 273 270 272 275 276 277
257 254 251 250 253 252 240 241 255 261 262 275 274 272 269 266 262 243 232 243 264 270 237 235 263 291 292 271 263 269 271 274 274 271 271 272 274 275
260 261 262 262 260 258 256 245 254 263 258 258 262 266 264 259 258 251 238 235 243 256 249 253 268 266 263 284 284 275 270 268 272 271 269 270 270 271
257 259 259 270 273 271 268 263 266 267 256 253 257 259 261 261 261 259 252 249 249 254 253 247 255 257 267 278 282 285 279 275 273 272 265 270 270 271
261 263 269 271 275 276 272 273 271 256 250 252 254 256 258 263 266 267 263 262 264 263 259 253 248 251 253 263 270 280 291 289 274 267 268 267 265 268
279 273 271 270 270 275 278 277 264 249 245 251 261 266 268 266 260 253 256 262 270 275 264 258 251 245 257 262 266 275 276 273 279 279 279 280 276 265
306 305 293 287 277 275 277 271 266 263 259 253 256 267 266 264 264 259 253 254 256 270 279 280 273 262 253 255 265 267 270 274 274 279 279 283 280 272
319 331 299 289 278 279 275 274 270 267 266 263 259 258 264 265 267 266 257 251 256 263 269 276 285 299 292 274 247 256 262 268 274 278 275 275 281 280
315 308 288 283 282 279 276 271 268 268 268 263 262 262 263 264 263 263 260 259 261 262 265 262 258 261 277 287 279 241 254 276 281 279 277 273 276 281
300 283 279 281 282 278 276 273 272 273 269 267 262 259 259 265 266 261 259 260 265 268 271 266 255 251 257 269 282 287 270 266 272 278 284 286 282 283
295 287 279 277 279 280 277 275 271 270 269 269 268 263 259 260 265 266 266 269 269 266 267 270 266 273 274 279 281 287 286 275 273 273 281 288 292 289
286 283 283 277 275 277 279 276 274 270 269 267 270 270 266 261 263 265 264 267 267 266 269 275 275 278 269 264 272 284 294 300 301 296 283 275 273 271
285 282 280 278 274 272 273 274 272 273 268 264 266 268 269 266 265 267 264 264 268 270 273 279 282 273 268 265 274 283 291 299 306 310 304 301 288 282
Height
1496 1497 1498 1499 1500 1501 1502 1503 1504 1502 1501 1502 1503 1504 1505 1505 1505 1505 1506 1506 1506 1506 1506 1506 1506 1506 1507 1507 1507 1507 1508 1508 1508 1509 1509 1509 1510 1510
1491 1492 1493 1494 1495 1496 1497 1498 1498 1499 1497 1496 1497 1499 1499 1499 1500 1500 1500 1500 1500 1500 1500 1500 1500 1500 1500 1500 1501 1501 1501 1502 1502 1502 1503 1503 1503 1503
1485 1486 1487 1489 1489 1490 1491 1492 1493 1493 1492 1491 1492 1493 1493 1493 1493 1494 1494 1494 1493 1494 1493 1493 1493 1493 1494 1494 1494 1494 1494 1495 1495 1495 1495 1496 1496 1496
1480 1481 1482 1483 1483 1484 1485 1486 1486 1487 1487 1486 1486 1487 1487 1487 1487 1487 1487 1487 1487 1487 1487 1486 1486 1486 1486 1486 1486 1487 1487 1487 1488 1488 1488 1488 1489 1489
1474 1474 1475 1476 1477 1478 1479 1479 1480 1481 1481 1480 1479 1480 1481 1481 1481 1480 1480 1480 1480 1480 1480 1480 1479 1479 1479 1479 1479 1479 1479 1480 1480 1480 1480 1481 1481 1481
1468 1468 1469 1470 1470 1471 1472 1473 1474 1474 1475 1474 1474 1474 1474 1474 1474 1473 1473 1473 1473 1473 1473 1473 1472 1472 1472 1472 1471 1471 1472 1472 1472 1472 1472 1473 1473 1473
1461 1462 1462 1463 1464 1465 1465 1466 1467 1467 1467 1468 1467 1467 1467 1467 1467 1467 1466 1466 1465 1466 1465 1465 1465 1464 1464 1464 1463 1464 1464 1464 1464 1464 1464 1464 1465 1465
1454 1455 1456 1456 1457 1458 1459 1459 1460 1461 1460 1461 1461 1461 1460 1461 1461 1461 1460 1459 1457 1458 1458 1457 1457 1456 1456 1456 1456 1456 1456 1456 1456 1456 1456 1456 1456 1456
1448 1448 1449 1449 1450 1451 1451 1452 1453 1454 1454 1455 1454 1454 1454 1454 1455 1455 1454 1453 1451 1451 1451 1448 1449 1448 1448 1448 1448 1448 1448 1448 1448 1448 1447 1448 1448 1448
1441 1442 1442 1443 1443 1444 1444 1445 1445 1446 1447 1448 1448 1448 1448 1448 1449 1449 1447 1446 1445 1445 1445 1442 1440 1440 1440 1440 1439 1439 1440 1440 1440 1440 1440 1440 1440 1440
1435 1436 1436 1437 1437 1438 1438 1438 1438 1438 1440 1441 1441 1441 1442 1442 1442 1442 1441 1440 1438 1437 1438 1437 1434 1433 1432 1431 1431 1431 1432 1432 1432 1432 1432 1431 1431 1431
1429 1430 1430 1431 1431 1431 1432 1431 1431 1432 1433 1433 1434 1434 1434 1435 1435 1435 1434 1434 1432 1431 1431 1431 1428 1428 1424 1422 1423 1423 1424 1424 1424 1424 1423 1423 1423 1423
1424 1424 1424 1425 1426 1426 1426 1426 1425 1426 1426 1426 1426 1426 1427 1428 1427 1428 1428 1428 1427 1425 1426 1426 1423 1422 1421 1416 1414 1415 1416 1416 1415 1415 1415 1415 1415 1415
1419 1419 1419 1420 1420 1421 1420 1420 1420 1421 1420 1420 1420 1420 1420 1421 1421 1421 1421 1421 1421 1420 1420 1420 1418 1417 1415 1411 1408 1408 1408 1409 1408 1407 1407 1406 1406 1406
1415 1415 1415 1415 1415 1415 1415 1415 1415 1415 1415 1414 1414 1414 1414 1415 1415 1415 1415 1415 1414 1414 1414 1413 1412 1410 1409 1406 1403 1401 1401 1400 1401 1400 1399 1398 1398 1397
1411 1410 1411 1411 1410 1410 1410 1410 1410 1410 1409 1409 1409 1409 1409 1409 1409 1409 1409 1408 1407 1406 1407 1407 1405 1404 1403 1401 1398 1395 1395 1394 1393 1393 1392 1390 1390 1390
1407 1406 1406 1406 1405 1405 1405 1405 1405 1405 1405 1404 1404 1404 1404 1404 1403 1403 1403 1402 1401 1399 1399 1399 1399 1398 1397 1395 1392 1390 1389 1388 1387 1386 1385 1382 1382 1382
1404 1402 1402 1401 1401 1400 1400 1399 1399 1399 1400 1399 1399 1399 1398 1398 1398 1397 1397 1396 1395 1394 1393 1392 1392 1391 1389 1387 1387 1384 1383 1381 1380 1380 1379 1376 1374 1374
1400 1399 1398 1398 1397 1396 1396 1395 1395 1395 1395 1395 1394 1394 1393 1393 1392 1392 1391 1390 1389 1388 1387 1387 1386 1385 1383 1380 1379 1380 1378 1376 1375 1373 1373 1371 1368 1367
1396 1395 1395 1394 1393 1393 1392 1392 1391 1391 1390 1390 1389 1389 1388 1388 1387 1386 1385 1385 1384 1383 1382 1381 1381 1380 1378 1376 1373 1372 1373 1372 1370 1368 1366 1365 1363 1362
1393 1392 1392 1391 1390 1389 1388 1387 1387 1386 1386 1385 1384 1384 1383 1383 1382 1381 1380 1380 1379 1378 1376 1375 1375 1375 1374 1372 1369 1366 1367 1367 1366 1364 1362 1359 1357 1355
1390 1389 1388 1387 1386 1385 1384 1383 1382 1381 1381 1380 1379 1379 1378 1378 1377 1376 1375 1374 1373 1372 1371 1370 1370 1370 1368 1367 1364 1362 1361 1360 1360 1359 1358 1356 1354 1350
1386 1385 1384 1384 1382 1381 1380 1379 1378 1377 1376 1375 1374 1374 1373 1372 1372 1371 1370 1369 1368 1367 1366 1365 1365 1364 1363 1362 1360 1358 1357 1355 1354 1352 1351 1351 1350 1348